Location: Cincinnati Observatory Center
(39.1389°N, 84.4225°W)
Time: 14:02:19
(UTC-04:00)

Daily predictions for brighter satellites

Satellite Brightness Start Highest point End
(mag) Time Altitude Azimuth Time Altitude Azimuth Time Altitude Azimuth
NOSS 2-2 (D) 3.5 21:14:17 10° SSW 21:18:18 68° ESE 21:22:54 10° NE
Cosmos 2184 Rocket 4.1 21:15:46 10° SSE 21:21:44 56° E 21:27:46 10° NNE
Cosmos 1939 Rocket 4.0 21:19:47 10° SE 21:23:01 26° ENE 21:26:18 10° NNE
H-2A R/B 2.8 21:22:04 10° S 21:25:45 77° WSW 21:29:29 10° NNW
YAOGAN 11 4.4 21:21:31 10° SSE 21:25:54 54° ENE 21:30:21 10° N
SL-8 R/B 4.2 21:26:26 10° WSW 21:31:13 65° NNW 21:36:02 10° NE
ISS -2.0 21:29:14 10° S 21:31:42 20° SE 21:34:11 10° E
SPOT 5 4.3 21:27:40 10° ESE 21:32:01 27° ENE 21:36:26 10° N
SL-27 R/B 3.1 21:28:35 10° N 21:32:04 40° ENE 21:35:27 10° SE
NOSS 2-2 (C) 3.6 21:28:57 10° SW 21:33:00 84° WNW 21:37:41 10° NNE
H-2A R/B 2.7 21:38:29 10° SE 21:42:30 39° ENE 21:46:27 10° N
ATLAS 5 CENTAUR R/B 2.5 21:40:19 10° NW 21:46:24 83° WSW 21:52:53 10° SSE
Envisat 3.3 21:43:13 10° SSE 21:48:07 50° ENE 21:53:02 10° N
USA 186 3.5 21:46:21 10° SSW 21:49:08 31° W 21:52:04 10° NNW
Cosmos 1624 Rocket 4.4 21:45:40 10° SSW 21:50:54 69° WNW 21:56:13 10° NNE
ERBS 2.9 21:49:23 10° NW 21:52:47 52° SW 21:55:38 13° SSE
COSMOS 2406 3.4 21:47:23 10° NNW 21:53:09 80° WSW 21:58:51 10° SSE
PSLV R/B 3.7 21:49:55 10° W 21:53:15 51° SSW 21:55:41 17° SE
Cosmos 2074 Rocket 4.2 21:47:38 10° S 21:53:56 77° W 22:00:14 10° N
GPS 2-05 Rocket1 3.8 21:55:16 10° SW 21:58:35 31° SSE 22:00:35 18° ESE
CZ-4 DEB 4.0 21:58:22 10° S 22:01:22 39° W 22:04:23 10° NNW
Cosmos 1610 Rocket 4.5 21:57:05 10° S 22:03:14 86° E 22:09:29 10° N
Cosmos 2278 Rocket 2.5 21:58:21 10° S 22:03:42 45° ESE 22:09:05 10° NE
H-2A R/B 4.0 22:03:38 11° E 22:06:20 15° ENE 22:09:13 10° NNE
Cosmos 407 Rocket 3.5 22:02:02 10° NNW 22:07:20 81° ENE 22:11:47 15° SSE
Cosmos 1825 2.6 22:04:36 15° SSE 22:07:30 43° E 22:11:09 10° NNE
Cosmos 1844 3.7 22:02:11 10° SSW 22:07:54 77° ESE 22:13:43 10° NNE
Okean 2 Rocket 3.9 22:05:30 18° SE 22:07:57 30° E 22:11:49 10° NNE
YAOGAN 6 3.6 22:06:45 21° ESE 22:08:16 29° ENE 22:11:21 10° N
ERS-1 Rocket 3.3 22:03:27 10° S 22:08:27 68° WSW 22:13:30 10° NNW
Cosmos 1844 Rocket 2.9 22:03:43 10° SSW 22:09:22 77° WNW 22:15:02 10° NNE
Cosmos 1408 2.9 22:06:51 16° SSE 22:09:26 44° E 22:12:56 10° NNE
Nadezhda 3 Rocket 4.1 22:04:48 10° N 22:11:07 65° E 22:16:37 14° SSE
BREEZE-M DEB (TANK) 4.4 22:08:51 10° W 22:11:17 32° NNW 22:16:15 10° NE
Cosmos 1674 Rocket 3.8 22:06:53 10° NNW 22:11:20 72° W 22:15:43 10° S
Cosmos 1452 Rocket 3.4 22:09:41 10° S 22:14:56 75° ESE 22:20:12 10° NNE
EO 1 Delta rocket 4.2 22:09:28 10° N 22:15:42 81° E 22:20:43 10° S
Cosmos 1140 Rocket 4.3 22:11:15 10° N 22:15:58 36° ENE 22:18:40 21° ESE
Sich 1 Rocket 3.8 22:11:41 10° SSW 22:16:15 77° W 22:20:51 10° N
Cosmos 1242 Rocket 3.9 22:13:13 10° NNE 22:16:17 25° ENE 22:17:12 22° E
MetOp-A 4.3 22:13:36 18° SSE 22:17:27 58° ENE 22:22:41 10° N
Cosmos 1190 Rocket 4.4 22:15:50 10° NNW 22:20:57 60° WSW 22:25:31 13° S
SPOT 1/Viking Rocket 4.1 22:18:19 22° SE 22:21:14 41° ENE 22:26:07 10° N
Okean 3 3.7 22:17:21 10° N 22:21:33 52° E 22:23:41 26° SE
Cosmos 1862 3.3 22:19:16 10° S 22:23:18 85° E 22:27:24 10° N
Cosmos 2082 Rocket 3.6 22:19:41 10° N 22:24:16 24° NE 22:27:07 17° E
Cosmos 1782 Rocket 3.6 22:21:11 18° S 22:24:25 59° E 22:28:50 10° NNE
NOSS 5 (C) 4.5 22:20:57 10° SW 22:24:25 72° WNW 22:27:32 10° NNE
USA 234 3.9 22:19:29 10° ENE 22:25:00 29° SE 22:30:28 10° S
CZ-4B R/B 3.7 22:24:57 10° NNE 22:29:41 45° E 22:32:07 25° SSE
Cosmos 2341 Rocket 4.0 22:25:56 10° S 22:32:14 82° E 22:38:32 10° N
Cosmos 2297 4.0 22:34:15 21° SSE 22:37:35 43° ESE 22:42:58 10° NE
Cosmos 1184 Rocket 2.8 22:39:00 29° SSW 22:40:33 80° W 22:43:54 10° N
Cosmos 1975 Rocket 2.9 22:36:44 10° N 22:41:04 74° E 22:42:49 35° SSE
CZ-4 SHROUD 3.2 22:41:30 49° S 22:42:13 75° W 22:45:19 10° NNW
Meteor 1-27 Rocket 4.2 22:39:30 10° NNW 22:44:58 58° W 22:49:19 16° S
Timation 2 Rocket 4.0 22:40:56 10° NNW 22:46:52 60° ENE 22:49:32 32° SE
CZ-4C R/B 4.4 22:46:34 28° E 22:46:57 28° ENE 22:50:27 10° N
NOAA 11 4.3 22:45:01 31° SE 22:47:35 64° ENE 22:53:02 10° N
Cosmos 1606 4.0 22:44:24 10° NNW 22:48:05 39° W 22:50:38 18° SSW
Cosmos 1850 Rocket 4.3 22:43:48 10° N 22:49:01 54° ENE 22:50:56 36° SE
SL-8 Rocket 4.0 22:45:50 23° S 22:49:48 66° E 22:56:00 10° NNE
PSLV R/B 3.8 22:50:18 40° SW 22:50:49 46° W 22:53:41 10° NNW
Landsat 7 4.4 22:52:46 35° ESE 22:53:55 42° ENE 22:58:24 10° N
Cosmos 1378 Rocket 4.4 22:50:10 10° NNW 22:54:19 47° W 22:56:50 21° SSW
Cosmos 1174 4.1 22:52:26 10° NW 22:55:20 35° WSW 22:55:34 35° SW
Cosmos 1954 Rocket 4.3 22:51:41 10° NNW 22:56:50 63° WSW 22:59:24 29° S
USA 245 2.9 23:00:54 65° SW 23:01:10 70° W 23:04:58 10° NNW
Atlas Centaur 2 3.5 23:03:18 10° SW 23:03:39 11° SW 23:03:39 11° SW
BREEZE-M TANK 4.5 22:51:29 10° W 23:05:38 50° N 23:09:01 14° ENE
Cosmos 1238 Rocket 4.1 23:04:39 10° NNW 23:07:36 31° W 23:08:57 23° SW
ISS -1.9 23:04:52 10° WSW 23:07:57 39° NNW 23:11:03 10° NE
Cosmos 1741 Rocket 3.9 23:03:33 10° NNW 23:08:48 79° ENE 23:10:12 49° SSE
Terra 2.3 23:09:02 40° E 23:09:39 42° ENE 23:14:08 10° N
USA 229 DEB 4.2 23:02:47 10° NNW 23:09:41 51° NE 23:12:49 32° ESE
USA 229 4.2 23:02:53 10° NNW 23:09:47 50° NE 23:12:55 31° ESE
SPOT 5 4.2 23:06:18 17° SSW 23:09:50 38° W 23:14:48 10° NNW
Cosmos 2151 Rocket 3.5 23:13:00 63° SSE 23:13:36 73° E 23:18:08 10° NNE
H-2A R/B 4.5 23:15:50 10° SW 23:18:37 17° W 23:21:24 10° NW
COSMOS 2487 4.0 23:17:30 10° NW 23:20:40 29° WSW 23:21:04 28° WSW
Cosmos 864 Rocket 4.3 23:18:36 41° S 23:20:55 79° E 23:27:05 10° N
Meteor 1-20 Rocket 4.3 23:22:25 51° ESE 23:23:07 55° E 23:28:32 10° NNE
SL-08 RB Rocket 3.9 23:23:17 50° SSW 23:24:13 64° W 23:28:50 10° NNW
Cosmos 1110 Rocket 4.2 23:25:13 49° E 23:25:13 49° E 23:30:02 10° NNE
ARGOS 3.5 23:23:56 36° SSW 23:25:52 57° W 23:31:10 10° NNW
APEX 4.3 23:24:54 26° WSW 23:26:52 50° WNW 23:31:41 10° NNE
Okean 1 4.4 23:23:35 10° N 23:26:36 34° NE 23:26:36 34° NE
Cosmos 2366 rocket 4.0 23:26:54 36° S 23:29:40 84° W 23:36:02 10° N
ASTEX 1 3.9 23:27:38 10° NNE 23:31:59 44° ENE 23:31:59 44° ENE
Meteor 1-25 Rocket 4.2 23:31:42 53° S 23:33:09 81° E 23:39:00 10° NNE
Cosmos 1300 Rocket 4.2 23:39:23 45° NE 23:39:23 45° NE 23:42:49 10° NNE
IGS 5A 3.6 23:39:53 67° NNE 23:39:53 67° NNE 23:43:35 10° N
Okean 1 Rocket 3.9 23:40:29 39° NE 23:40:29 39° NE 23:43:45 10° NNE
H-2A R/B 2.1 23:44:16 61° SSW 23:45:07 74° WSW 23:50:28 10° NNW
Okean 1-7 Rocket 4.4 23:41:51 10° N 23:45:24 41° NE 23:45:24 41° NE
Meteor 1-18 Rocket 4.3 23:41:42 10° NNW 23:47:37 76° W 23:48:48 58° SSW
Cosmos 2278 Rocket 4.2 23:43:17 10° WSW 23:47:58 26° NW 23:52:40 10° N
Cosmos 1833 Rocket 2.5 23:43:49 10° NNW 23:49:28 90° ESE 23:49:59 75° SSE
